Regional Weather Roundup
Issued by NWS

Home | Current Version | Previous Version | Graphics & Text | Print | Product List | Glossary On
Versions: 1 2 3 4 5 6 7 8 9 10 11 12 13 14 15 16 17 18 19 20 21 22 23 24 25 26 27
000
ASUS45 KBOU 220307
RWRCO

WEATHER ROUNDUP FOR COLORADO
NATIONAL WEATHER SERVICE DENVER/BOULDER CO
900 PM MDT TUE OCT 21 2014

NOTE: "FAIR" INDICATES FEW OR NO CLOUDS BELOW 12000 FEET WITH NO
SIGNIFICANT WEATHER AND/OR OBSTRUCTIONS TO VISIBILITY.

COZ001>005-013-030-031-220400-
...NORTHWEST COLORADO...

CITY           SKY/WX    TMP DP  RH WIND       PRES   REMARKS
CRAIG          CLOUDY    51  38  60 NW7       30.08R
HAYDEN         CLOUDY    50  36  57 E5        30.06R
MEEKER         PTCLDY    52  39  61 W5        30.04R
MOUNT WERNER   NOT AVBL
STEAMBOAT SPGS CLOUDY    49  39  69 W9        30.07R
WALDEN         CLOUDY    41  34  75 E5        30.10F
$$

COZ006>008-011-220400-
...WEST CENTRAL VALLEYS...

CITY           SKY/WX    TMP DP  RH WIND       PRES   REMARKS
GRAND JUNCTION CLEAR     52  46  80 SE8       29.97S
MONTROSE       PTCLDY    52  44  74 SE8       30.05R
EAGLE          PTCLDY    48  39  71 CALM      30.09R
RIFLE          MOCLDY    53  47  79 E6        30.02R
DELTA          PTCLDY    59  45  58 NE8       30.01S
NUCLA          PTCLDY    55  37  50 SE5       30.08R
$$

COZ017>023-064>068-220400-
...SOUTHWEST COLORADO...

CITY           SKY/WX    TMP DP  RH WIND       PRES   REMARKS
DURANGO        PTCLDY    49  44  83 CALM      30.13R
CORTEZ         CLEAR     50  41  71 E6        30.06S
PAGOSA SPRINGS CLOUDY    48  41  76 NW3       30.17S
TELLURIDE      PTCLDY    46  39  75 CALM      30.23R
WOLF CREEK PAS CLOUDY    32  32 100 SW16        N/A  WCI  21
$$

COZ009-010-012-014-032>034-037-058>063-220400-
...CENTRAL COLORADO...

CITY           SKY/WX    TMP DP  RH WIND       PRES   REMARKS
ASPEN          PTCLDY    41  39  93 S3        30.13R
BUENA VISTA    DRIZZLE   49  39  70 SE5       30.14S
COPPER MTN     MOCLDY    36  32  87 S9        30.31S
BERTHOUD PASS  CLOUDY    28  25  86 W13G22    30.33F WCI  18
COTTONWOOD PAS CLOUDY    46  34  61 W3        30.23R
GUNNISON       MOCLDY    46  37  71 E5        30.17R
KREMMLING      MOCLDY    50  36  57 N3          N/A
LEADVILLE      MOCLDY    37  35  92 N3        30.21F
SALIDA         CLOUDY    49  45  88 SW10      30.22R
SUNLIGHT       CLOUDY    39  36  87 CALM      30.27R
WILKERSON PASS NOT AVBL
$$

COZ069>075-220400-
...SAN LUIS VALLEY/SANGRE DE CRISTO MOUNTAINS...

CITY           SKY/WX    TMP DP  RH WIND       PRES   REMARKS
ALAMOSA        CLOUDY    50  38  63 S12       30.11S
LA VETA PASS   PTCLDY    39  34  81 SW7G18    30.23S
SAGUACHE       CLOUDY    48  36  61 N3        30.14S
$$

COZ035-036-038>040-220400-
...NORTHERN COLORADO FRONT RANGE...

CITY           SKY/WX    TMP DP  RH WIND       PRES   REMARKS
DENVER INTL AP CLOUDY    62  38  40 N8        29.94R
DMNS CITY PARK   N/A     62  38  40 W20G26    29.96R
AURORA         MOCLDY    62  40  44 N8        29.97R
FRONT RANGE AP NOT AVBL
ERIE MUNI ARPT LGT RAIN  62  38  41 W20G36    29.95R
BOULDER MUN AP CLOUDY    61  37  41 W24G32    29.96R
CENTENNIAL     CLOUDY    62  37  39 W9        29.97R
BROOMFIELD     NOT AVBL
FORT COLLINS   CLOUDY    59  43  55 CALM      29.95R
LONGMONT       CLOUDY    64  40  41 W17G26    29.95S
$$

COZ041-046-047-076>085-087-088-220400-
...PIKES PEAK/PALMER DIVIDE AND SOUTHERN FOOTHILLS...

CITY           SKY/WX    TMP DP  RH WIND       PRES   REMARKS
COLO. SPRINGS  MOCLDY    57  41  55 E8        30.00R
A. F. ACADEMY  MOCLDY    49  37  62 N6        30.02R
ELLICOTT       MOCLDY    55  42  61 S12       29.98S
FALCON         MOCLDY    53  40  60 CALM      30.04S
FORT CARSON    PTCLDY    54  38  56 NW9       29.96S
LIMON          CLEAR     53  40  61 SE9       29.97R
MONUMENT HILL  MOCLDY    52  37  58 S10       30.02S
TRINIDAD       CLEAR     61  44  53 S22G29    30.01R
$$

COZ042>045-048>051-090-091-220400-
...NORTHEAST COLORADO...

CITY           SKY/WX    TMP DP  RH WIND       PRES   REMARKS
GREELEY ARPT   CLOUDY    61  39  44 NE7       29.92R
AKRON          CLEAR     59  40  49 S15       29.91S
BURLINGTON     CLEAR     63  44  50 S17       29.96R
WRAY           PTCLDY    64  42  44 SE14G20   29.90S
STERLING       CLEAR     59  43  55 S6        29.87R
HOLYOKE        PTCLDY    59  43  55 SE8       29.90R
FORT MORGAN    PTCLDY    56  37  49 CALM      29.91R
$$

COZ086-089-092>099-220400-
...SOUTHEAST COLORADO...

CITY           SKY/WX    TMP DP  RH WIND       PRES   REMARKS
PUEBLO         CLEAR     60  40  47 S6        29.90R
LA JUNTA       CLEAR     65  46  50 S12       29.93R
LAMAR          CLEAR     66  48  52 S16       29.92S
SPRINGFIELD      N/A     57  47  69 S15       30.02R
$$



USA.gov is the U.S. government's official web portal to all federal, state and local government web resources and services.